TimeEST,TemperatureF,Dew PointF,Humidity,Sea Level PressureIn,VisibilityMPH,Wind Direction,Wind SpeedMPH,Gust SpeedMPH,PrecipitationIn,Events,Conditions,WindDirDegrees,DateUTC
12:15 AM,58.3,51.8,79,29.98,10.0,Calm,Calm,-,N/A,,Scattered Clouds,0,2012-12-10 05:15:00
12:35 AM,58.3,51.8,79,29.96,10.0,Calm,Calm,-,N/A,,Clear,0,2012-12-10 05:35:00
12:55 AM,57.2,51.3,81,29.95,10.0,Calm,Calm,-,N/A,,Clear,0,2012-12-10 05:55:00
1:15 AM,55.2,50.5,84,29.95,10.0,Calm,Calm,-,N/A,,Clear,0,2012-12-10 06:15:00
1:35 AM,55.2,50.5,84,29.94,10.0,Calm,Calm,-,N/A,,Clear,0,2012-12-10 06:35:00
1:55 AM,54.1,50.7,88,29.93,10.0,Calm,Calm,-,N/A,,Scattered Clouds,0,2012-12-10 06:55:00
2:15 AM,52.3,51.1,95,29.92,10.0,Calm,Calm,-,N/A,,Scattered Clouds,0,2012-12-10 07:15:00
2:35 AM,51.3,50.4,97,29.91,10.0,North,4.6,-,N/A,,Clear,10,2012-12-10 07:35:00
2:55 AM,53.8,50.9,90,29.90,10.0,NE,3.5,-,N/A,,Clear,40,2012-12-10 07:55:00
3:15 AM,53.8,51.1,91,29.89,10.0,Calm,Calm,-,N/A,,Clear,0,2012-12-10 08:15:00
3:55 AM,54.0,50.7,89,29.87,10.0,Calm,Calm,-,N/A,,Clear,0,2012-12-10 08:55:00
4:15 AM,52.5,50.9,94,29.86,10.0,Calm,Calm,-,N/A,,Clear,0,2012-12-10 09:15:00
4:35 AM,53.1,51.1,93,29.86,10.0,Calm,Calm,-,N/A,,Clear,0,2012-12-10 09:35:00
4:55 AM,53.4,50.7,91,29.86,10.0,Calm,Calm,-,N/A,,Scattered Clouds,0,2012-12-10 09:55:00
5:15 AM,54.0,50.9,89,29.86,10.0,NE,4.6,-,N/A,,Scattered Clouds,50,2012-12-10 10:15:00
5:35 AM,54.5,51.4,89,29.84,10.0,NNE,4.6,-,N/A,,Clear,20,2012-12-10 10:35:00
5:55 AM,55.0,51.4,88,29.83,10.0,Calm,Calm,-,N/A,,Scattered Clouds,0,2012-12-10 10:55:00
6:15 AM,55.9,51.8,86,29.81,10.0,ENE,4.6,-,N/A,,Mostly Cloudy,60,2012-12-10 11:15:00
6:35 AM,55.6,52.2,88,29.82,10.0,NE,4.6,-,N/A,,Overcast,50,2012-12-10 11:35:00
6:55 AM,57.6,52.2,82,29.82,10.0,NE,3.5,-,N/A,Thunderstorm,Overcast,40,2012-12-10 11:55:00
7:15 AM,58.6,52.2,79,29.81,10.0,Calm,Calm,-,N/A,,Overcast,0,2012-12-10 12:15:00
7:35 AM,56.5,52.2,85,29.81,10.0,Calm,Calm,-,N/A,,Overcast,0,2012-12-10 12:35:00
7:55 AM,56.1,52.3,87,29.82,10.0,Calm,Calm,-,N/A,,Overcast,0,2012-12-10 12:55:00
8:15 AM,55.9,53.2,91,29.82,10.0,Calm,Calm,-,N/A,,Overcast,0,2012-12-10 13:15:00
8:35 AM,57.0,52.9,86,29.82,10.0,Calm,Calm,-,N/A,,Overcast,0,2012-12-10 13:35:00
8:55 AM,57.2,53.6,88,29.82,10.0,Calm,Calm,-,N/A,Rain,Light Rain,0,2012-12-10 13:55:00
9:15 AM,57.2,54.5,91,29.83,10.0,WNW,11.5,16.1,N/A,Rain,Rain,290,2012-12-10 14:15:00
9:35 AM,56.7,55.2,95,29.83,10.0,Calm,Calm,-,0.01,Rain,Light Rain,0,2012-12-10 14:35:00
9:55 AM,56.3,55.4,97,29.82,10.0,WSW,4.6,-,0.01,,Drizzle,240,2012-12-10 14:55:00
10:15 AM,55.9,54.5,95,29.84,5.0,WSW,6.9,-,0.03,Rain,Light Rain,250,2012-12-10 15:15:00
10:35 AM,55.6,54.7,97,29.84,4.0,WSW,9.2,-,0.06,Rain,Light Rain,250,2012-12-10 15:35:00
10:55 AM,56.7,56.3,99,29.84,4.0,WSW,8.1,-,0.07,Rain,Light Rain,240,2012-12-10 15:55:00
11:15 AM,56.5,55.8,97,29.82,10.0,West,10.4,-,N/A,,Light Drizzle,270,2012-12-10 16:15:00
11:35 AM,56.7,55.9,97,29.82,10.0,WSW,11.5,16.1,N/A,Rain,Light Rain,250,2012-12-10 16:35:00
11:55 AM,56.5,55.2,96,29.80,10.0,WSW,6.9,-,N/A,,Overcast,250,2012-12-10 16:55:00
12:15 PM,58.5,55.0,88,29.78,10.0,WSW,10.4,-,N/A,,Overcast,250,2012-12-10 17:15:00
12:35 PM,58.1,55.0,90,29.76,10.0,West,11.5,-,N/A,,Overcast,270,2012-12-10 17:35:00
12:55 PM,57.6,54.0,88,29.75,10.0,West,11.5,-,N/A,,Overcast,260,2012-12-10 17:55:00
1:15 PM,57.9,54.3,88,29.73,10.0,West,9.2,-,N/A,,Overcast,260,2012-12-10 18:15:00
1:35 PM,58.1,53.6,85,29.71,10.0,West,8.1,-,N/A,,Overcast,260,2012-12-10 18:35:00
1:55 PM,58.6,54.0,84,29.72,10.0,WSW,6.9,-,N/A,,Overcast,240,2012-12-10 18:55:00
2:15 PM,58.5,54.0,85,29.72,10.0,West,11.5,-,N/A,,Overcast,260,2012-12-10 19:15:00
2:35 PM,57.9,54.5,88,29.73,10.0,WSW,8.1,-,N/A,,Drizzle,250,2012-12-10 19:35:00
2:55 PM,57.2,55.8,95,29.73,7.0,WSW,5.8,-,0.01,Rain,Light Rain,250,2012-12-10 19:55:00
3:15 PM,57.2,56.1,96,29.73,10.0,West,6.9,-,N/A,Rain,Light Rain,260,2012-12-10 20:15:00
3:35 PM,56.8,56.3,98,29.73,10.0,West,5.8,-,0.02,Rain,Light Rain,260,2012-12-10 20:35:00
3:55 PM,56.7,56.1,98,29.74,10.0,West,6.9,-,0.03,Rain,Light Rain,270,2012-12-10 20:55:00
4:15 PM,56.3,55.6,97,29.73,10.0,WSW,8.1,-,0.02,Rain,Rain,250,2012-12-10 21:15:00
4:35 PM,56.3,55.8,98,29.72,10.0,WSW,8.1,-,0.04,Rain,Light Rain,250,2012-12-10 21:35:00
4:55 PM,55.9,55.8,99,29.73,5.0,WSW,6.9,-,0.06,Rain,Light Rain,250,2012-12-10 21:55:00
5:15 PM,55.8,55.6,99,29.73,5.0,WSW,6.9,-,N/A,,Drizzle,250,2012-12-10 22:15:00
5:35 PM,55.6,55.4,99,29.72,10.0,West,6.9,-,N/A,,Overcast,270,2012-12-10 22:35:00
5:55 PM,55.6,55.4,99,29.71,10.0,West,5.8,-,0.01,,Overcast,270,2012-12-10 22:55:00
6:15 PM,55.4,55.0,99,29.72,10.0,West,4.6,-,N/A,,Overcast,260,2012-12-10 23:15:00
6:35 PM,55.0,54.9,99,29.71,10.0,WSW,3.5,-,N/A,,Overcast,240,2012-12-10 23:35:00
6:55 PM,55.0,54.9,99,29.72,7.0,West,6.9,-,N/A,,Overcast,270,2012-12-10 23:55:00
7:15 PM,55.4,55.0,99,29.71,10.0,West,4.6,-,N/A,,Overcast,260,2012-12-11 00:15:00
7:35 PM,55.4,55.0,99,29.70,7.0,West,4.6,-,N/A,,Drizzle,260,2012-12-11 00:35:00
7:55 PM,55.0,54.9,99,29.70,10.0,WSW,5.8,-,N/A,,Overcast,250,2012-12-11 00:55:00
8:15 PM,55.2,54.9,99,29.70,10.0,West,8.1,-,N/A,Rain,Light Rain,260,2012-12-11 01:15:00
8:35 PM,55.2,54.9,99,29.70,5.0,West,6.9,-,0.02,Rain,Rain,270,2012-12-11 01:35:00
8:55 PM,55.0,54.9,99,29.70,4.0,WSW,5.8,-,0.09,Rain,Rain,240,2012-12-11 01:55:00
9:15 PM,55.2,55.2,100,29.71,5.0,West,8.1,-,0.08,Rain,Heavy Rain,270,2012-12-11 02:15:00
9:55 PM,49.6,46.9,90,29.75,10.0,West,16.1,21.9,0.15,Rain,Rain,280,2012-12-11 02:55:00
10:15 PM,47.3,43.7,87,29.77,10.0,West,11.5,21.9,0.01,,Light Drizzle,270,2012-12-11 03:15:00
10:35 PM,45.5,42.4,89,29.78,10.0,West,6.9,21.9,0.01,,Overcast,280,2012-12-11 03:35:00
10:55 PM,44.8,40.8,86,29.79,10.0,West,10.4,-,0.01,,Overcast,280,2012-12-11 03:55:00
11:15 PM,43.9,41.7,92,29.82,10.0,West,8.1,-,N/A,Rain,Rain,270,2012-12-11 04:15:00
11:35 PM,42.8,40.8,93,29.81,7.0,WNW,5.8,-,N/A,,Light Drizzle,300,2012-12-11 04:35:00
11:55 PM,42.3,40.3,93,29.82,10.0,West,9.2,-,N/A,,Overcast,260,2012-12-11 04:55:00